Location: Cheyres
(46.8153°N, 6.7877°E)
Time: 04:15:27
(UTC+00:00)

Cosmos 1707 Rocket - Pass Details

Date: 11 May 2021
Orbit: 605 x 631 km, 82.5° (Epoch: 18 June)

Event Time Altitude Azimuth Distance (km) Brightness Sun altitude
Exits shadow 22:32:58 43° 252° (WSW) 877 4.2 -23.8°
Maximum altitude 22:33:43 47° 283° (WNW) 819 4.3 -23.9°
Drops below altitude 10° 22:38:00 10° 358° (N) 1,999 7.2 -24.0°
Sets 22:40:19 0° 5° (N) 2,915 8.2 -24.1°
